STARLINK-2098 (47378 NORAD) Tracking and Keplerian Element Data

This shows tracking and keplerian element data for the satellite.

Feedback or suggestion? Click here.




ElementValue
Catalog47378
NameSTARLINK-2098
Epoch Orbit182
Epoch Day99.91667824
Epoch Year2021
RAAN181.7059
Inclination53.0545
Eccentricity0.000398
Argument of Perigee10.7075
Mean Anonmoly58.2337
Mean Motion15.6268012
Decay Rate0.00010808
L11 47378U 21005AF 21099.91667824 .00010808 00000-0 12406-3 0 9994
L22 47378 53.0545 181.7059 0003980 10.7075 58.2337 15.62680120 1824

Live tracking and technical data element details for STARLINK-2098 (NORAD 47378). STARLINK-2098 can be tracked NOW for your location showing map with azimuth and elevation plus other details from your city location.

Track the satellite on the map from your city or location and see movement details for azimuth, elevation, latitude, longitude, range, height, and movement on the map or in text.







IsCatalogInMostPopularTable: catalog: 47378, numindb: 12
Update: records affected: 1



GetName: 47378 STARLINK-2098

Hit Count: updated at: Sat, 10 Apr 2021 19:45:51 GMT